| time (UTC) | temp F | wind direction | speed MPH | gust MPH | rain 1hr in | rain 24hr in | rain mn in | humidity % | barometer mb |
| 20260901232019 | 61 | 0.0 | 0.0 | 0.00 | 0.39 | 0.39 | 92 | 1019.8 | |
| 20260901231018 | 61 | 0.0 | 1.0 | 0.00 | 0.39 | 0.39 | 92 | 1019.8 | |
| 20260901230018 | 62 | 90 | 1.0 | 3.0 | 0.00 | 0.39 | 0.39 | 92 | 1019.6 |
| 20260901225018 | 62 | 0.0 | 2.0 | 0.00 | 0.39 | 0.39 | 92 | 1019.7 | |
| 20260901224018 | 62 | 45 | 1.0 | 4.0 | 0.00 | 0.39 | 0.39 | 92 | 1019.4 |
| 20260901223038 | 62 | 68 | 1.0 | 3.0 | 0.00 | 0.39 | 0.39 | 92 | 1019.4 |
| 20260901222018 | 62 | 68 | 1.0 | 4.0 | 0.00 | 0.39 | 0.39 | 92 | 1019.5 |
| 20260901221018 | 62 | 68 | 2.0 | 5.0 | 0.00 | 0.39 | 0.39 | 92 | 1019.5 |
| 20260901220018 | 62 | 68 | 2.0 | 5.0 | 0.00 | 0.39 | 0.39 | 92 | 1019.4 |
| 20260901215018 | 62 | 0 | 1.0 | 4.0 | 0.00 | 0.39 | 0.39 | 92 | 1019.4 |
| 20260901214018 | 62 | 68 | 2.0 | 6.0 | 0.00 | 0.39 | 0.39 | 92 | 1019.5 |
| 20260901213018 | 63 | 23 | 3.0 | 8.0 | 0.00 | 0.39 | 0.39 | 92 | 1019.4 |
| 20260901212058 | 63 | 68 | 2.0 | 5.0 | 0.00 | 0.39 | 0.39 | 92 | 1019.2 |
| 20260901211017 | 63 | 68 | 2.0 | 3.0 | 0.00 | 0.39 | 0.39 | 92 | 1019.2 |
| 20260901210018 | 63 | 68 | 2.0 | 4.0 | 0.00 | 0.39 | 0.39 | 93 | 1019.2 |
| 20260901205038 | 63 | 45 | 2.0 | 6.0 | 0.00 | 0.39 | 0.39 | 93 | 1019.1 |
| 20260901204038 | 63 | 68 | 1.0 | 5.0 | 0.00 | 0.39 | 0.39 | 93 | 1019.0 |
| 20260901203018 | 64 | 68 | 2.0 | 4.0 | 0.00 | 0.39 | 0.39 | 93 | 1018.9 |
| 20260901202018 | 64 | 68 | 2.0 | 4.0 | 0.00 | 0.39 | 0.39 | 94 | 1018.8 |
| 20260901201019 | 65 | 315 | 1.0 | 3.0 | 0.00 | 0.39 | 0.39 | 94 | 1018.7 |
| 20260901200019 | 64 | 68 | 1.0 | 5.0 | 0.00 | 0.39 | 0.39 | 94 | 1018.8 |
| 20260901195020 | 64 | 248 | 1.0 | 3.0 | 0.00 | 0.39 | 0.39 | 94 | 1018.7 |
| 20260901194019 | 64 | 68 | 1.0 | 3.0 | 0.01 | 0.39 | 0.39 | 94 | 1018.6 |
| 20260901193019 | 64 | 68 | 2.0 | 5.0 | 0.01 | 0.39 | 0.39 | 94 | 1018.6 |
| 20260901192019 | 64 | 0 | 1.0 | 4.0 | 0.01 | 0.39 | 0.39 | 94 | 1018.7 |
| 20260901191020 | 64 | 45 | 1.0 | 4.0 | 0.02 | 0.39 | 0.39 | 94 | 1018.6 |
| 20260901190019 | 65 | 23 | 1.0 | 3.0 | 0.04 | 0.39 | 0.39 | 94 | 1018.7 |
| 20260901185039 | 65 | 45 | 1.0 | 3.0 | 0.06 | 0.39 | 0.39 | 94 | 1018.7 |
| 20260901184019 | 66 | 338 | 1.0 | 3.0 | 0.08 | 0.38 | 0.38 | 95 | 1018.7 |
| 20260901183020 | 66 | 0.0 | 1.0 | 0.09 | 0.38 | 0.38 | 95 | 1018.7 | |
| 20260901182019 | 66 | 0.0 | 0.0 | 0.14 | 0.38 | 0.38 | 95 | 1018.5 | |
| 20260901181019 | 66 | 68 | 1.0 | 3.0 | 0.21 | 0.37 | 0.37 | 94 | 1018.4 |
| 20260901180019 | 66 | 158 | 1.0 | 3.0 | 0.21 | 0.35 | 0.35 | 94 | 1018.3 |
| 20260901175019 | 67 | 248 | 1.0 | 4.0 | 0.20 | 0.33 | 0.33 | 94 | 1018.2 |
| 20260901174019 | 67 | 68 | 1.0 | 3.0 | 0.17 | 0.30 | 0.30 | 95 | 1018.1 |
| 20260901173019 | 68 | 90 | 1.0 | 4.0 | 0.16 | 0.29 | 0.29 | 95 | 1017.8 |
| 20260901172019 | 68 | 68 | 1.0 | 3.0 | 0.11 | 0.24 | 0.24 | 95 | 1017.8 |
| 20260901171019 | 68 | 0.0 | 2.0 | 0.03 | 0.16 | 0.16 | 95 | 1018.1 | |
| 20260901170019 | 68 | 68 | 2.0 | 7.0 | 0.01 | 0.14 | 0.14 | 95 | 1018.0 |
| 20260901165019 | 68 | 90 | 2.0 | 4.0 | 0.00 | 0.13 | 0.13 | 95 | 1018.0 |
| 20260901164019 | 68 | 90 | 2.0 | 3.0 | 0.00 | 0.13 | 0.13 | 95 | 1018.1 |
| 20260901163019 | 68 | 90 | 1.0 | 2.0 | 0.00 | 0.13 | 0.13 | 95 | 1018.1 |
| 20260901162019 | 68 | 0.0 | 2.0 | 0.00 | 0.13 | 0.13 | 95 | 1018.1 | |
| 20260901161019 | 68 | 68 | 2.0 | 4.0 | 0.00 | 0.13 | 0.13 | 95 | 1018.1 |
| 20260901160019 | 68 | 68 | 2.0 | 5.0 | 0.00 | 0.13 | 0.13 | 95 | 1018.1 |
| 20260901155020 | 68 | 68 | 2.0 | 5.0 | 0.00 | 0.13 | 0.13 | 95 | 1018.0 |
| 20260901154019 | 67 | 90 | 2.0 | 4.0 | 0.00 | 0.13 | 0.13 | 95 | 1018.0 |
| 20260901153019 | 67 | 113 | 1.0 | 3.0 | 0.00 | 0.13 | 0.13 | 96 | 1018.1 |
| 20260901152019 | 67 | 68 | 2.0 | 5.0 | 0.00 | 0.13 | 0.13 | 96 | 1018.1 |
| 20260901151716 | 67 | 68 | 2.0 | 6.0 | 0.00 | 0.13 | 0.13 | 96 | 1018.4 |
| 20260901150519 | 67 | 68 | 2.0 | 3.0 | 0.00 | 0.13 | 0.13 | 96 | 1018.4 |
| 20260901145519 | 67 | 68 | 2.0 | 4.0 | 0.00 | 0.13 | 0.13 | 95 | 1018.5 |
| 20260901144519 | 67 | 68 | 2.0 | 3.0 | 0.00 | 0.13 | 0.13 | 96 | 1018.3 |
| 20260901143519 | 67 | 68 | 1.0 | 3.0 | 0.00 | 0.13 | 0.13 | 95 | 1018.4 |
| 20260901142519 | 66 | 90 | 2.0 | 3.0 | 0.00 | 0.13 | 0.13 | 95 | 1018.6 |
| 20260901142015 | 66 | 68 | 2.0 | 4.0 | 0.01 | 0.13 | 0.13 | 95 | 1018.6 |
| 20260901140059 | 66 | 68 | 1.0 | 3.0 | 0.02 | 0.13 | 0.13 | 95 | 1018.8 |
| 20260901135019 | 66 | 0.0 | 2.0 | 0.02 | 0.13 | 0.13 | 95 | 1018.7 | |
| 20260901134019 | 66 | 0.0 | 1.0 | 0.02 | 0.13 | 0.13 | 95 | 1018.8 | |
| 20260901133019 | 66 | 90 | 1.0 | 2.0 | 0.05 | 0.13 | 0.13 | 95 | 1018.7 |
| 20260901132019 | 66 | 0.0 | 2.0 | 0.07 | 0.13 | 0.13 | 95 | 1018.8 | |
| 20260901131019 | 66 | 0.0 | 0.0 | 0.09 | 0.12 | 0.12 | 95 | 1018.9 | |
| 20260901130019 | 66 | 0.0 | 0.0 | 0.10 | 0.11 | 0.11 | 95 | 1018.8 | |
| 20260901125018 | 66 | 0.0 | 1.0 | 0.10 | 0.11 | 0.11 | 94 | 1018.9 | |
| 20260901124019 | 66 | 68 | 1.0 | 3.0 | 0.10 | 0.11 | 0.11 | 94 | 1018.7 |
| 20260901123018 | 66 | 0.0 | 0.0 | 0.07 | 0.08 | 0.08 | 94 | 1018.8 | |
| 20260901122019 | 66 | 0.0 | 0.0 | 0.05 | 0.06 | 0.06 | 94 | 1018.7 | |
| 20260901121018 | 66 | 0.0 | 0.0 | 0.02 | 0.03 | 0.03 | 94 | 1018.7 | |
| 20260901120018 | 66 | 0.0 | 0.0 | 0.00 | 0.01 | 0.01 | 94 | 1018.8 | |
| 20260901115018 | 66 | 0.0 | 0.0 | 0.00 | 0.01 | 0.01 | 94 | 1018.7 | |
| 20260901114019 | 66 | 0.0 | 0.0 | 0.00 | 0.01 | 0.01 | 94 | 1018.8 | |
| 20260901113019 | 66 | 0.0 | 0.0 | 0.00 | 0.01 | 0.01 | 94 | 1018.8 | |
| 20260901112039 | 66 | 0.0 | 0.0 | 0.00 | 0.01 | 0.01 | 93 | 1018.7 | |
| 20260901111018 | 66 | 0.0 | 0.0 | 0.00 | 0.01 | 0.01 | 93 | 1018.6 | |
| 20260901110018 | 65 | 0.0 | 0.0 | 0.00 | 0.01 | 0.01 | 93 | 1018.6 | |
| 20260901105018 | 65 | 0.0 | 0.0 | 0.00 | 0.01 | 0.01 | 93 | 1018.6 | |
| 20260901104019 | 65 | 0.0 | 0.0 | 0.00 | 0.01 | 0.01 | 93 | 1018.5 | |
| 20260901103018 | 65 | 0.0 | 0.0 | 0.00 | 0.01 | 0.01 | 93 | 1018.5 | |
| 20260901102018 | 65 | 0.0 | 0.0 | 0.00 | 0.01 | 0.01 | 92 | 1018.4 | |
| 20260901101038 | 65 | 0.0 | 0.0 | 0.00 | 0.01 | 0.01 | 92 | 1018.4 | |
| 20260901100019 | 65 | 0.0 | 0.0 | 0.01 | 0.01 | 0.01 | 92 | 1018.3 | |
| 20260901095018 | 66 | 0.0 | 0.0 | 0.01 | 0.01 | 0.01 | 92 | 1018.2 | |
| 20260901094018 | 66 | 0.0 | 0.0 | 0.01 | 0.01 | 0.01 | 92 | 1018.1 | |
| 20260901093018 | 66 | 0.0 | 0.0 | 0.01 | 0.01 | 0.01 | 92 | 1018.2 | |
| 20260901092019 | 66 | 0.0 | 0.0 | 0.01 | 0.01 | 0.01 | 91 | 1018.2 | |
| 20260901091018 | 66 | 0.0 | 0.0 | 0.01 | 0.01 | 0.01 | 91 | 1018.2 | |
| 20260901090018 | 66 | 0.0 | 0.0 | 0.00 | 0.00 | 0.00 | 90 | 1018.4 | |
| 20260901085018 | 66 | 0.0 | 0.0 | 0.00 | 0.00 | 0.00 | 90 | 1018.4 | |
| 20260901084018 | 66 | 0.0 | 0.0 | 0.00 | 0.00 | 0.00 | 90 | 1018.3 | |
| 20260901083018 | 66 | 0.0 | 0.0 | 0.00 | 0.00 | 0.00 | 89 | 1018.4 | |
| 20260901082018 | 67 | 0.0 | 0.0 | 0.00 | 0.00 | 0.00 | 89 | 1018.5 | |
| 20260901081018 | 67 | 0.0 | 0.0 | 0.00 | 0.00 | 0.00 | 88 | 1018.4 | |
| 20260901080018 | 67 | 0.0 | 0.0 | 0.00 | 0.00 | 0.00 | 87 | 1018.5 | |
| 20260901075018 | 67 | 0.0 | 0.0 | 0.00 | 0.00 | 0.00 | 86 | 1018.8 | |
| 20260901074018 | 67 | 0.0 | 0.0 | 0.00 | 0.00 | 0.00 | 86 | 1018.8 | |
| 20260901073018 | 68 | 0.0 | 0.0 | 0.00 | 0.00 | 0.00 | 85 | 1018.6 | |
| 20260901072018 | 68 | 0.0 | 0.0 | 0.00 | 0.00 | 0.00 | 85 | 1018.7 | |
| 20260901071018 | 68 | 0.0 | 0.0 | 0.00 | 0.00 | 0.00 | 84 | 1018.8 | |
| 20260901070018 | 68 | 0.0 | 0.0 | 0.00 | 0.00 | 0.00 | 84 | 1018.9 | |
| 20260901065018 | 68 | 0.0 | 0.0 | 0.00 | 0.00 | 0.00 | 84 | 1018.8 | |
| 20260901064018 | 68 | 0.0 | 0.0 | 0.00 | 0.00 | 0.00 | 84 | 1018.8 | |
| 20260901063018 | 68 | 0.0 | 1.0 | 0.00 | 0.00 | 0.00 | 84 | 1018.9 | |
| 20260901062018 | 68 | 270 | 1.0 | 2.0 | 0.00 | 0.00 | 0.00 | 84 | 1019.0 |
| 20260901061018 | 68 | 293 | 1.0 | 2.0 | 0.00 | 0.00 | 0.00 | 83 | 1019.1 |
| 20260901060018 | 68 | 338 | 1.0 | 2.0 | 0.00 | 0.00 | 0.00 | 83 | 1018.9 |
| 20260901055139 | 68 | 315 | 2.0 | 4.0 | 0.00 | 0.00 | 0.00 | 82 | 1019.1 |
| 20260901054018 | 68 | 338 | 1.0 | 2.0 | 0.00 | 0.00 | 0.00 | 82 | 1019.0 |
| 20260901053018 | 68 | 338 | 1.0 | 3.0 | 0.00 | 0.00 | 0.00 | 81 | 1019.0 |
| 20260901052018 | 68 | 315 | 1.0 | 3.0 | 0.00 | 0.00 | 0.00 | 81 | 1019.1 |
| 20260901051018 | 68 | 338 | 1.0 | 3.0 | 0.00 | 0.00 | 0.00 | 81 | 1019.0 |
| 20260901050018 | 68 | 338 | 2.0 | 4.0 | 0.00 | 0.00 | 0.00 | 80 | 1019.2 |
| 20260901045018 | 68 | 315 | 2.0 | 6.0 | 0.00 | 0.00 | 0.00 | 79 | 1019.2 |
| 20260901044018 | 68 | 338 | 2.0 | 5.0 | 0.00 | 0.00 | 0.00 | 79 | 1019.2 |
| 20260901043018 | 68 | 293 | 2.0 | 5.0 | 0.00 | 0.00 | 0.00 | 78 | 1019.0 |
| 20260901042018 | 68 | 293 | 3.0 | 9.0 | 0.00 | 0.00 | 0.00 | 78 | 1019.2 |
| 20260901041018 | 68 | 338 | 2.0 | 7.0 | 0.00 | 0.00 | 0.00 | 77 | 1019.1 |
| 20260901040018 | 68 | 0 | 1.0 | 4.0 | 0.00 | 0.00 | 0.00 | 77 | 1019.2 |
| 20260901035018 | 68 | 293 | 2.0 | 5.0 | 0.00 | 0.00 | 0.00 | 76 | 1019.3 |
| 20260901034019 | 68 | 23 | 1.0 | 4.0 | 0.00 | 0.00 | 0.00 | 76 | 1019.3 |
| 20260901033038 | 68 | 338 | 1.0 | 3.0 | 0.00 | 0.00 | 0.00 | 77 | 1019.3 |
| 20260901032038 | 69 | 315 | 1.0 | 2.0 | 0.00 | 0.00 | 0.00 | 78 | 1019.2 |
| 20260901031018 | 69 | 0 | 1.0 | 3.0 | 0.00 | 0.00 | 0.00 | 78 | 1019.3 |
| 20260901030018 | 69 | 338 | 1.0 | 3.0 | 0.00 | 0.00 | 0.00 | 78 | 1019.2 |
| 20260901025018 | 69 | 338 | 2.0 | 5.0 | 0.00 | 0.00 | 0.00 | 79 | 1019.2 |
| 20260901024018 | 69 | 315 | 1.0 | 3.0 | 0.00 | 0.00 | 0.00 | 80 | 1019.2 |
| 20260901023018 | 70 | 0.0 | 2.0 | 0.00 | 0.00 | 0.00 | 80 | 1019.1 | |
| 20260901022018 | 70 | 315 | 1.0 | 3.0 | 0.00 | 0.00 | 0.00 | 81 | 1019.1 |
| 20260901021018 | 70 | 45 | 1.0 | 3.0 | 0.00 | 0.00 | 0.00 | 80 | 1019.1 |
| 20260901020018 | 70 | 0.0 | 2.0 | 0.00 | 0.00 | 0.00 | 80 | 1019.3 | |
| 20260901015018 | 71 | 0.0 | 0.0 | 0.00 | 0.00 | 0.00 | 79 | 1019.2 | |
| 20260901014018 | 71 | 23 | 1.0 | 3.0 | 0.00 | 0.00 | 0.00 | 78 | 1019.3 |
| 20260901013038 | 71 | 45 | 1.0 | 4.0 | 0.00 | 0.00 | 0.00 | 77 | 1019.4 |
| 20260901012018 | 71 | 270 | 1.0 | 2.0 | 0.00 | 0.00 | 0.00 | 77 | 1019.3 |
| 20260901011038 | 71 | 23 | 1.0 | 4.0 | 0.00 | 0.00 | 0.00 | 76 | 1019.3 |
| 20260901010018 | 71 | 68 | 1.0 | 3.0 | 0.00 | 0.00 | 0.00 | 76 | 1019.4 |
| 20260901005018 | 71 | 68 | 1.0 | 3.0 | 0.00 | 0.00 | 0.00 | 76 | 1019.1 |
| 20260901004018 | 71 | 0.0 | 3.0 | 0.00 | 0.00 | 0.00 | 76 | 1019.1 | |
| 20260901003018 | 71 | 0.0 | 0.0 | 0.00 | 0.00 | 0.00 | 76 | 1019.0 | |
| 20260901002018 | 70 | 0.0 | 0.0 | 0.00 | 0.00 | 0.00 | 76 | 1018.9 | |
| 20260901001018 | 71 | 0.0 | 0.0 | 0.00 | 0.00 | 0.00 | 76 | 1018.8 | |
| 20260901000018 | 71 | 0.0 | 0.0 | 0.00 | 0.00 | 0.00 | 75 | 1019.0 | |
| 20260831235018 | 71 | 0.0 | 0.0 | 0.00 | 0.00 | 0.00 | 75 | 1019.1 | |
| 20260831234018 | 71 | 0.0 | 0.0 | 0.00 | 0.00 | 0.00 | 74 | 1019.1 | |
| 20260831233017 | 71 | 0.0 | 0.0 | 0.00 | 0.00 | 0.00 | 73 | 1019.0 |